Theta_e
312 311 310 309 308 305 306 307 306 318 317 303 305 301 307 303 306 309 306 305 303 301 301 298 299 300 302 307 304 300 300 295 288 293 300 304 298 294 293 285 286 287 285 285
312 310 309 309 308 306 299 302 307 317 314 297 301 309 306 307 306 306 305 305 305 303 299 294 300 303 306 305 304 298 297 291 285 289 295 300 297 299 295 292 291 286 281 285
312 310 309 309 308 306 302 305 303 308 308 307 306 305 305 302 307 305 305 304 305 300 299 301 298 302 306 306 303 308 301 290 288 283 290 294 292 294 294 289 282 286 286 287
313 310 309 308 307 305 304 309 304 305 301 302 303 303 304 302 302 305 304 302 303 301 292 297 296 302 303 304 307 301 298 291 294 295 297 297 295 294 294 290 290 283 288 289
313 310 308 308 307 305 309 300 300 305 302 306 303 300 302 302 303 302 302 301 303 302 296 298 296 299 298 299 301 297 299 290 294 292 297 296 293 295 294 293 293 291 291 290
314 310 308 308 308 305 305 306 306 304 304 303 300 299 302 303 303 304 304 302 300 301 301 303 301 299 298 297 294 294 293 291 288 286 295 293 285 292 294 293 294 292 287 291
314 311 308 308 308 306 299 306 302 302 299 301 299 301 302 301 301 300 302 303 299 303 306 302 299 298 299 299 298 299 293 291 290 283 289 277 291 299 298 295 295 295 294 294
312 312 309 308 308 307 300 302 301 301 297 301 301 301 301 302 300 300 301 305 305 304 299 292 291 292 294 297 299 298 297 293 285 281 280 289 293 296 294 286 290 295 294 294
310 312 309 309 308 307 301 301 307 302 298 298 303 300 302 297 297 300 302 306 305 300 296 293 285 285 294 293 296 302 300 297 286 282 277 276 289 298 300 298 282 297 295 294
308 312 309 307 307 307 303 299 310 301 297 302 302 297 297 301 298 295 301 302 300 300 293 290 288 289 296 289 291 290 290 289 285 284 278 287 297 300 300 284 284 295 294 290
306 310 310 307 307 307 303 299 309 301 296 298 304 305 300 300 300 295 300 297 298 296 291 291 293 291 292 290 295 292 289 285 283 285 281 284 301 298 288 292 294 292 292 289
307 309 310 307 306 306 305 300 310 308 298 299 304 305 306 305 304 299 301 299 299 299 296 296 295 291 292 290 284 295 285 290 286 287 286 297 299 296 298 297 293 292 291 293
307 308 309 307 305 305 304 299 304 305 299 300 300 301 306 306 303 309 298 304 305 304 305 297 294 290 293 286 289 291 298 298 289 289 294 296 298 298 297 297 294 297 296 294
307 308 309 307 305 305 304 299 302 303 300 295 301 310 307 310 306 306 306 306 308 305 302 296 292 290 298 291 293 291 294 295 294 293 296 297 299 297 297 296 297 295 294 292
306 307 309 306 305 305 303 301 303 305 298 294 297 306 307 309 308 305 304 304 303 299 296 294 293 297 295 295 294 292 296 294 289 287 296 294 293 295 296 293 292 293 292 293
306 307 309 306 304 304 300 300 306 307 305 296 294 305 306 307 307 305 304 305 303 301 298 297 299 304 296 290 288 297 300 300 299 295 299 297 297 296 297 294 294 293 294 294
307 307 308 305 304 301 297 297 301 303 305 297 294 296 305 306 304 302 301 304 301 301 298 296 296 297 297 292 287 296 300 301 300 301 300 296 297 293 294 294 294 296 295 295
306 308 306 304 303 302 296 301 304 302 301 299 291 294 297 305 298 297 303 299 300 299 297 298 295 298 296 289 296 299 301 301 302 299 299 297 297 295 294 294 295 293 292 293
306 305 304 300 296 294 300 310 307 304 298 293 294 290 292 302 299 301 300 301 294 300 295 294 296 293 289 295 298 299 300 299 299 299 297 296 294 294 293 291 293 292 292 293
303 298 294 290 295 307 306 299 295 294 294 295 292 298 294 299 298 298 298 299 294 290 295 299 294 292 299 302 303 302 301 300 299 294 292 294 292 292 291 292 294 293 294 294
296 291 290 298 307 300 297 292 291 292 290 293 292 293 293 303 295 296 300 295 295 289 293 293 291 290 297 301 302 302 301 300 297 296 295 294 293 293 293 295 296 296 295 294
296 297 300 301 296 292 289 289 294 293 290 297 293 294 295 299 302 296 297 294 295 289 298 293 288 295 300 301 302 301 300 298 296 296 295 295 296 296 294 294 295 296 295 295
300 294 291 291 290 285 286 285 290 291 297 299 298 295 297 300 300 296 296 292 290 298 292 289 293 299 301 302 301 300 299 298 296 296 296 296 297 298 296 296 298 298 296 297
289 288 284 286 285 287 289 291 294 298 300 299 299 297 297 299 295 295 292 294 295 288 286 289 296 298 301 303 302 299 297 296 296 296 295 297 297 298 298 298 299 296 296 297
288 290 285 286 292 294 297 297 299 300 302 300 298 297 298 295 294 295 294 291 288 290 288 294 299 301 301 300 300 299 298 298 296 296 297 299 299 297 296 297 299 297 297 296
291 292 289 293 292 292 296 298 297 303 303 302 300 296 293 292 293 291 290 290 287 291 297 300 302 301 301 300 300 299 300 298 297 296 298 298 296 294 295 298 298 297 296 295
289 289 294 294 294 294 297 297 299 303 300 294 296 292 291 296 291 291 294 290 296 299 300 303 303 301 301 300 300 300 299 298 298 299 298 296 297 297 296 294 295 295 295 295
Wind_Speed
19 21 24 25 26 32 9 5 3 5 4 2 3 5 5 4 7 2 5 2 5 6 6 5 8 8 6 6 6 5 6 0 3 7 11 2 4 2 2 6 4 1 6 7
19 21 23 24 21 18 7 5 5 5 6 2 3 7 5 6 5 5 6 3 3 5 4 4 6 7 7 5 6 3 4 4 4 11 6 8 5 6 4 2 3 4 5 7
16 19 23 25 25 17 4 4 4 4 2 2 4 5 2 6 2 4 3 5 3 3 3 1 2 5 6 7 6 7 4 1 3 5 7 4 7 9 8 1 4 5 6 4
15 18 21 25 28 28 2 3 4 4 5 6 8 5 7 5 5 4 4 3 4 6 5 7 5 8 5 8 7 5 4 1 5 8 12 11 12 12 10 4 4 3 4 11
13 15 19 23 27 34 1 4 5 6 6 6 6 1 1 11 7 5 6 5 9 6 4 5 6 7 7 6 4 2 3 2 6 5 12 8 12 13 8 8 10 9 10 7
13 13 16 19 21 19 5 5 5 2 7 6 2 3 7 8 4 5 8 8 6 9 8 7 5 3 1 3 2 3 3 3 4 4 11 12 5 11 8 5 13 6 8 5
13 11 13 15 15 12 2 4 4 3 5 7 4 7 3 8 7 3 6 5 4 4 7 8 6 6 7 7 7 6 3 1 2 4 5 3 2 9 11 9 15 13 10 11
13 11 11 12 14 13 2 4 4 4 4 8 9 8 6 7 4 4 1 5 3 4 4 2 2 3 3 9 9 7 5 5 2 3 1 7 6 13 9 4 5 8 8 7
13 10 10 11 12 15 4 3 3 3 3 4 8 6 7 2 5 3 7 5 3 3 1 2 3 3 4 5 5 8 7 5 6 3 3 5 0 11 9 7 0 8 7 9
12 10 9 11 11 13 5 4 3 3 3 4 5 4 2 4 4 2 6 3 3 1 2 1 2 4 5 3 8 5 3 2 6 4 3 5 6 10 7 2 4 6 7 4
13 13 9 9 10 11 8 6 2 1 4 6 6 7 5 5 4 3 3 6 3 2 1 2 3 3 4 5 5 6 6 4 3 1 4 3 1 5 6 3 4 4 4 3
10 14 9 8 8 9 8 4 2 2 2 5 3 6 3 3 3 2 3 4 4 1 2 4 3 3 4 3 2 3 2 6 5 7 6 1 7 10 5 4 3 3 3 8
9 11 9 8 7 7 6 4 5 4 3 6 4 5 5 2 2 3 2 3 4 4 1 1 2 1 3 0 4 5 2 5 4 5 4 6 8 8 7 8 5 2 4 9
8 9 10 8 7 7 6 3 4 4 3 3 1 5 4 6 6 4 2 3 3 1 2 1 2 1 2 3 5 1 5 1 2 2 6 8 10 7 5 6 4 4 5 4
9 9 9 8 6 7 6 5 4 5 1 4 4 4 6 7 5 5 4 4 2 2 1 3 4 3 1 2 1 2 2 2 3 3 3 3 4 6 7 5 5 7 5 5
9 9 9 8 5 4 4 3 2 5 2 2 4 1 6 7 7 5 5 4 2 2 2 3 4 2 3 1 1 4 6 5 4 1 6 8 8 7 4 3 3 4 5 5
8 9 9 7 4 2 3 3 3 8 4 2 4 3 4 9 6 2 2 3 2 2 3 3 3 0 2 1 1 3 4 6 7 8 6 7 5 3 5 3 4 5 4 4
8 6 9 5 1 6 5 5 10 2 2 3 3 3 2 6 4 3 4 4 3 3 3 3 2 1 2 1 3 6 6 0 10 7 7 6 5 7 5 5 2 4 3 3
7 14 10 3 1 3 3 11 11 2 1 3 3 3 4 5 3 4 2 3 3 4 4 4 1 2 4 5 7 8 7 5 7 10 7 6 6 7 4 3 3 2 3 2
16 4 2 2 4 6 6 2 3 3 4 4 4 4 3 5 4 3 3 3 4 3 5 2 3 5 7 7 9 6 9 10 8 5 4 4 4 5 1 0 2 2 3 1
3 2 4 3 2 3 3 4 5 5 5 6 5 7 3 3 4 4 4 3 3 3 5 6 3 3 3 10 9 11 11 8 9 7 5 6 5 2 1 3 4 4 3 2
5 3 2 1 2 4 5 5 6 8 7 7 7 6 8 3 3 3 3 3 3 5 5 3 3 1 8 9 13 12 8 9 7 6 7 5 4 5 3 3 3 2 3 2
2 1 4 3 3 5 6 8 6 5 4 6 6 5 5 1 1 1 3 4 5 4 3 4 2 8 7 9 12 9 8 8 7 7 3 3 4 6 5 5 4 4 5 5
3 4 6 5 6 7 7 6 6 5 4 9 8 6 4 4 3 4 3 3 3 3 4 4 5 7 9 9 10 9 7 7 5 3 4 6 3 3 3 4 3 7 5 6
4 4 6 8 7 7 6 7 2 5 6 8 6 3 3 4 3 2 4 4 4 6 4 3 8 11 10 8 10 10 7 5 5 3 4 3 2 2 2 4 2 7 7 8
3 5 4 6 7 8 5 2 5 1 4 4 4 3 4 3 3 6 5 4 5 4 4 7 10 11 9 8 9 7 6 6 5 3 3 5 4 4 3 1 8 6 6 7
4 5 5 5 3 3 3 6 4 5 8 6 3 5 6 3 3 4 4 5 4 9 9 8 11 9 8 11 8 6 6 6 4 6 6 6 5 3 4 6 5 5 5 5
Wind_Direction
338 340 342 345 351 343 14 319 295 217 116 80 205 236 270 272 92 178 71 344 10 22 23 359 352 80 76 45 14 53 320 95 294 268 290 111 73 10 89 112 304 181 163 267
337 340 339 339 355 8 320 305 261 274 100 226 281 287 145 48 44 79 20 23 66 65 342 55 345 93 101 73 65 79 331 342 360 342 8 19 15 331 358 68 100 205 148 263
334 338 338 337 341 351 311 290 308 339 56 284 315 343 251 121 50 73 2 2 61 288 330 17 238 100 143 115 113 139 100 296 184 198 264 321 326 325 325 2 109 232 226 283
333 341 340 339 338 340 240 233 316 1 342 349 341 20 343 93 117 18 96 297 216 109 27 4 334 15 135 84 147 138 109 281 348 332 328 321 303 291 282 281 268 93 323 79
332 339 342 342 348 338 166 20 2 339 282 294 300 354 40 51 44 24 52 21 17 40 68 41 26 18 36 62 216 116 156 264 354 322 292 350 330 326 342 38 31 40 27 91
329 336 341 346 1 349 345 351 324 261 277 305 317 34 33 67 41 69 68 35 14 56 24 352 333 339 304 295 335 350 49 43 34 279 342 327 13 327 342 30 50 52 50 360
328 328 334 344 357 23 264 285 299 295 301 328 78 35 32 63 54 28 360 57 45 10 332 314 290 250 233 222 236 175 165 356 84 260 354 331 285 29 38 45 58 45 30 8
318 315 323 336 344 359 302 284 346 327 304 320 25 29 24 8 147 165 190 69 93 330 319 312 253 268 243 212 216 156 124 101 42 124 23 291 24 33 19 93 69 55 19 349
316 304 315 325 344 351 301 286 287 294 296 12 5 329 352 314 354 151 108 99 104 356 290 277 238 269 220 150 92 112 111 107 112 48 133 229 27 15 358 321 165 18 22 17
315 305 303 317 338 351 324 277 303 291 286 3 18 40 351 360 2 7 63 140 134 111 323 302 256 266 292 156 145 170 145 187 160 170 225 282 21 336 335 352 259 24 56 46
304 307 287 302 326 353 353 278 261 35 312 298 6 3 20 349 30 22 312 36 349 339 340 296 326 339 9 34 40 162 165 161 194 195 198 273 313 76 134 209 51 65 28 346
306 307 272 282 313 344 347 283 344 193 206 262 321 282 280 318 62 94 298 181 195 49 47 359 16 346 6 16 311 45 350 167 182 149 214 164 80 119 94 99 127 52 338 327
296 307 261 271 293 325 357 294 319 310 260 276 192 224 134 141 208 98 116 45 347 47 92 270 285 357 78 342 287 345 348 112 146 76 265 97 110 113 125 100 95 20 325 324
288 303 253 258 271 303 324 299 309 293 291 269 135 105 145 124 131 141 150 94 4 347 356 328 236 218 211 216 230 247 219 111 11 104 54 119 93 101 97 98 63 355 328 322
286 292 245 242 261 295 293 260 252 262 206 317 309 289 145 139 150 174 169 150 153 286 256 217 233 229 4 307 336 9 66 87 103 196 112 135 117 94 69 60 11 341 326 358
280 284 231 226 245 305 289 258 184 345 119 268 282 53 135 141 152 198 184 169 178 233 250 267 266 161 112 246 202 138 114 99 129 238 72 108 125 124 102 36 350 339 7 333
278 282 204 202 227 259 256 305 322 342 314 236 274 217 165 153 147 191 188 186 245 207 256 234 252 101 111 76 200 280 68 107 72 78 97 121 147 136 118 73 20 358 311 319
308 224 164 171 256 290 278 224 232 218 268 274 266 239 119 160 180 199 188 173 185 237 220 296 253 114 103 268 122 99 86 100 108 95 75 111 141 125 92 59 359 336 15 353
303 142 126 97 293 230 247 106 122 204 331 294 230 236 187 156 230 181 154 187 185 229 184 228 184 197 219 210 173 160 201 113 103 127 128 97 90 98 68 28 9 7 325 25
117 67 114 191 227 167 125 14 149 194 214 224 249 299 234 173 176 194 125 182 207 209 228 156 181 236 225 202 114 94 95 89 90 82 55 52 66 88 34 88 294 267 315 268
78 120 196 254 322 49 295 199 218 180 205 200 214 215 232 220 168 177 159 202 227 216 225 141 234 246 132 118 110 96 102 103 92 109 113 103 111 135 58 64 35 328 248 88
156 133 160 280 192 184 195 197 226 194 209 182 186 196 190 260 106 105 160 219 228 234 139 158 242 132 113 120 107 109 109 102 104 87 114 145 172 166 178 225 251 227 188 138
92 122 158 197 163 205 208 193 208 194 210 152 156 155 141 215 34 176 168 220 225 113 166 215 198 134 125 112 108 98 98 112 101 109 137 221 201 169 217 257 199 178 120 129
168 171 170 217 189 223 208 238 211 235 188 150 165 150 147 137 163 202 188 232 140 202 219 202 161 135 107 106 116 123 120 106 97 136 204 243 200 137 196 276 224 154 139 128
197 215 211 210 234 260 217 243 353 280 312 153 134 151 119 141 176 188 208 182 208 208 207 121 134 127 126 123 122 129 130 135 136 158 101 82 90 14 327 269 126 131 126 123
247 234 249 237 212 245 248 260 256 225 256 152 118 107 134 184 207 197 184 206 193 195 120 127 121 122 125 114 100 104 116 126 142 143 123 84 48 17 286 77 123 116 131 139
218 235 230 266 279 287 47 2 325 328 270 132 186 184 171 161 221 208 197 206 94 115 121 120 125 123 120 112 113 123 133 139 160 133 120 106 87 64 71 93 85 105 114 135